TimeEDT,TemperatureF,Dew PointF,Humidity,Sea Level PressureIn,VisibilityMPH,Wind Direction,Wind SpeedMPH,Gust SpeedMPH,PrecipitationIn,Events,Conditions,WindDirDegrees,DateUTC
12:52 AM,41.0,30.9,67,30.02,10.0,Calm,Calm,-,N/A,,Overcast,0,2013-03-29 04:52:00
1:52 AM,41.0,30.9,67,30.02,10.0,Calm,Calm,-,N/A,,Overcast,0,2013-03-29 05:52:00
2:52 AM,34.0,28.9,82,30.02,10.0,Calm,Calm,-,N/A,,Clear,0,2013-03-29 06:52:00
3:52 AM,30.0,27.0,88,30.02,10.0,Calm,Calm,-,N/A,,Clear,0,2013-03-29 07:52:00
4:52 AM,30.0,26.1,85,30.02,9.0,Calm,Calm,-,N/A,,Clear,0,2013-03-29 08:52:00
5:52 AM,28.9,26.1,89,30.02,9.0,Calm,Calm,-,N/A,,Clear,0,2013-03-29 09:52:00
6:52 AM,28.0,25.0,88,30.04,10.0,Calm,Calm,-,N/A,,Clear,0,2013-03-29 10:52:00
7:52 AM,39.0,32.0,76,30.04,10.0,West,3.5,-,N/A,,Clear,270,2013-03-29 11:52:00
8:52 AM,46.0,30.9,56,30.04,10.0,NW,6.9,-,N/A,,Clear,310,2013-03-29 12:52:00
9:52 AM,52.0,30.9,45,30.04,10.0,NW,9.2,-,N/A,,Clear,320,2013-03-29 13:52:00
10:52 AM,55.0,30.9,40,30.03,10.0,North,10.4,-,N/A,,Clear,350,2013-03-29 14:52:00
11:52 AM,55.9,30.9,39,30.02,10.0,WNW,8.1,19.6,N/A,,Scattered Clouds,300,2013-03-29 15:52:00
12:52 PM,57.9,30.0,35,30.01,10.0,North,13.8,19.6,N/A,,Mostly Cloudy,360,2013-03-29 16:52:00
1:52 PM,57.0,26.1,30,29.99,10.0,NNW,9.2,-,N/A,,Mostly Cloudy,330,2013-03-29 17:52:00
2:52 PM,55.9,26.1,32,29.98,10.0,WNW,5.8,-,N/A,,Overcast,300,2013-03-29 18:52:00
3:52 PM,57.0,26.1,30,29.97,10.0,South,3.5,-,0.00,,Mostly Cloudy,180,2013-03-29 19:52:00
4:52 PM,53.1,28.9,40,29.98,10.0,East,3.5,-,0.00,,Overcast,90,2013-03-29 20:52:00
5:52 PM,53.1,30.0,41,29.98,10.0,Calm,Calm,-,0.00,,Overcast,0,2013-03-29 21:52:00
6:52 PM,52.0,30.9,45,29.98,10.0,Calm,Calm,-,N/A,,Overcast,0,2013-03-29 22:52:00
7:52 PM,51.1,30.0,44,30.00,10.0,Variable,3.5,-,0.00,Rain,Light Rain,0,2013-03-29 23:52:00
8:52 PM,46.0,36.0,68,30.02,10.0,Calm,Calm,-,0.00,,Overcast,0,2013-03-30 00:52:00
9:52 PM,48.0,27.0,44,30.04,10.0,NW,4.6,-,N/A,,Scattered Clouds,310,2013-03-30 01:52:00
10:52 PM,46.9,28.0,48,30.04,10.0,WNW,4.6,-,N/A,,Overcast,300,2013-03-30 02:52:00
11:52 PM,46.0,28.9,51,30.04,10.0,WNW,3.5,-,N/A,,Overcast,300,2013-03-30 03:52:00